Regional Weather Roundup
Issued by NWS

Home | Current Version | Previous Version | Text Only | Print | Product List | Glossary On
Versions: 1 2 3 4 5 6 7 8 9 10 11 12 13 14 15 16 17 18 19 20 21 22 23 24 25 26 27 28 29 30 31 32 33 34 35 36 37 38 39 40 41 42 43 44 45 46 47 48 49 50
000
ASHW40 PHFO 191310
RWRHI

WEATHER ROUNDUP FOR HAWAII
NATIONAL WEATHER SERVICE HONOLULU HI
300 AM HST SUN APR 19 2015

THIS IS AN AUTOMATED REPORT THAT HAS NOT BEEN QUALITY CONTROLLED.

NOTE..."FAIR" INDICATES FEW OR NO CLOUDS BELOW 12,000 FEET WITH NO
SIGNIFICANT WEATHER AND/OR OBSTRUCTIONS TO VISIBILITY.

* - THESE SITES REPORT LIMITED FIELDS

HIZ001>004-191400-
KAUAI-NIIHAU-

CITY           SKY/WX    TMP DP  RH WIND       PRES   REMARKS
LIHUE APT      CLOUDY    74  64  71 NE17      30.15F
PORT ALLEN*      N/A     73 N/A N/A NE13G18     N/A
POIPU*           N/A     73 N/A N/A NE8G20      N/A
PRINCEVILLE*     N/A     70 N/A N/A MISG        N/A
KOKOLE POINT*  NOT AVBL
MOLOAA DAIRY*  NOT AVBL
WAIMEA HTS*    NOT AVBL
PUU OPAE*      NOT AVBL
PUU LUA*       NOT AVBL
MAKAHA RIDGE*  NOT AVBL
$$

HIZ005>011-191400-
OAHU-

CITY           SKY/WX    TMP DP  RH WIND       PRES   REMARKS
HONOLULU       PTCLDY    74  64  71 NE17G23   30.09F
KALAELOA       PTCLDY    73  63  70 E9        30.11S
KANEOHE MCB    LGT RAIN  73  65  75 E10G23    30.09F
WHEELER FIELD  NOT AVBL
BELLOWS*       NOT AVBL
KAHUKU*        NOT AVBL
WHEELER*       NOT AVBL
WAIANAE HARBOR NOT AVBL
DILLINGHAM*      N/A     70  63  78 MISG        N/A
KAHUKU TRN*      N/A     70  64  83 E12G26      N/A
KAWAILOA*        N/A     68  64  88 E12G23      N/A
KII*             N/A     73  66  78 NE18G33     N/A
MAKUA RANGE*     N/A     72  61  68 E1          N/A
OAHU FOREST NW NOT AVBL
SCHOFIELD BRK*   N/A     70  64  83 MISG        N/A
SCHOFIELD S*   NOT AVBL
WAIANAE VLY*   NOT AVBL
KUAOKALA*      NOT AVBL
HONOULIUULI*   NOT AVBL
MOKUOLOE IS*   NOT AVBL
PALEHUA*       NOT AVBL
WAIAWA PHB*    NOT AVBL
$$

HIZ012>013-191400-
MOLOKAI-

CITY           SKY/WX    TMP DP  RH WIND       PRES   REMARKS
MOLOKAI AIRPT  PTCLDY    72  63  73 NE15G23   30.10S
KALAUPAPA      NOT AVBL
MAKAPULAPAI*   NOT AVBL
MOLOKAI 1*     NOT AVBL
PUU ALII*      NOT AVBL
$$

HIZ016-191400-
KAHOOLAWE-

CITY           SKY/WX    TMP DP  RH WIND       PRES   REMARKS
KAHOOLAWE*     NOT AVBL
HAKIOAWA*      NOT AVBL
HONOKANAIA*      N/A     74  64  70 NE18G39   30.08F
KANELOA*         N/A     72  64  78 MISG      29.29
KEALIALALO*    NOT AVBL
LUA MAKIKA*    NOT AVBL
$$

HIZ014>015-191400-
LANAI-

CITY           SKY/WX    TMP DP  RH WIND       PRES   REMARKS
LANAI CITY     MOCLDY    68  61  78 E3        30.13S
LANAI 1*       NOT AVBL
$$

HIZ017>028-191400-
MAUI-

CITY           SKY/WX    TMP DP  RH WIND       PRES   REMARKS
KAHULUI        PTCLDY    73  64  73 E17G24    30.07F
KAPALUA-W MAUI NOT AVBL
HANA AIRPORT   MOCLDY    73  64  73 E6        30.14S
HANA*          NOT AVBL
HALEAKALA SUMM   N/A     46  -9   9 E16G29      N/A
MAALAEA BAY*   NOT AVBL
HALEAKALA*     NOT AVBL
KAUPO GAP*     NOT AVBL
KULA 1*          N/A     53   8  16 CALM        N/A
$$

HIZ023>026-191400-
BIG ISLAND OF HAWAII COAST AND LOWER SLOPES-

CITY           SKY/WX    TMP DP  RH WIND       PRES   REMARKS
KAILUA KONA    PTCLDY    75  64  68 CALM      30.02F
HILO           PTCLDY    67  64  90 S6        30.11F
HONOKAA*       NOT AVBL
KAWAIHAE MWT*  NOT AVBL
KAWAIHAE*        N/A     77 N/A N/A E12G22      N/A
SOUTH POINT*   NOT AVBL
UPOLU AIRPORT* NOT AVBL
KAMUELA*       SUNNY     61  57  88 NE22      30.13S
HAKALAU*         N/A     48  46  93 S5G10       N/A
KALOKO-HONOKO* NOT AVBL
PALI 2*          N/A     63  54  72 N13G20      N/A
KEALAKOMO*       N/A     72  63  73 N13G20      N/A
KAUPULEHU*     NOT AVBL
KAPAPALA*        N/A     68  52  56 NE6G18      N/A
LOWER KAHUKU*  NOT AVBL
PUHE CS*       NOT AVBL
PUHO CS*       NOT AVBL
PTA KEAMUKU*     N/A     54  46  76 CALM        N/A
WAIKOLOA*      NOT AVBL
$$

HIZ027>028-191400-
BIG ISLAND OF HAWAII INTERIOR AND SUMMMITS-

CITY           SKY/WX    TMP DP  RH WIND       PRES   REMARKS
BRADSHAW FIELD CLOUDY    47  43  84 SE10      30.32F
MK VISITOR CEN NOT AVBL
MAUNA KEA*       N/A     36 -13  12 SE20        N/A  WCI  25
MAUNA LOA*       N/A     41   0  17 MISG        N/A
MAUNA LOA 1*   NOT AVBL
PTA KIPUKA*      N/A     52  50  93 E3          N/A
PTA RANGE 17*    N/A     52  45  76 SE16G28     N/A
PTA WEST*        N/A     75  63  64 SE9G26      N/A
NENE CABIN*    NOT AVBL
AHUMOA*        NOT AVBL
PTA PORTABLE*  NOT AVBL
PUU MALI*        N/A    N/A N/A N/A SW6G12      N/A
$$

HIC003-191400-
NORTHWEST ISLANDS-

CITY           SKY/WX    TMP DP  RH WIND       PRES   REMARKS
MIDWAY ISLAND  MOCLDY    66  66 100 E12       30.26F
MIDWAY NOS*    NOT AVBL
FRENCH FRIGATE NOT AVBL
$$

PHZ110>124-180-191400-
BUOY REPORTS

STATION/POSITION TIME  TEMP    WIND        PRES    WAVE   SWELL
                       AIR SEA DIR/SP/G            HT/PER HT/DIR
                 (UTC) (F)     (DEG/KT/KT) (MB)    (FT/S) (FT/D)
BUOY 51001       NOT AVBL
BUOY 51101       1300   73 73   90/ 17/ 19 1021.5F   6/ 8   5/110
BUOY 51100       1200   72      90/ 12     1022.9
BUOY 51002       1300   77 78   80/ 23/ 27 1015.3F  12/10   8/ 80
BUOY 51003       1200   77 78  100/ 16/ 19 1018.0F   9/ 8   7
BUOY 51004       1213   76 77   60/ 21/ 25 1016.5F  10/ 9   5/ 90
BARBERS PT BUOY  NOT AVBL
WAIMEA BAY BUOY  1300      76                N/A     6/ 8   2/340
KAILUA BAY BUOY  1300      76                N/A     9/ 7   2/ 80
LANAI BUOY       1200      77                N/A     3/ 5   2/200
BARBERS PT 2     1300      77                N/A     4/ 8   2/210
PAUWELA MAUI     1300      76                N/A     9/10   2/ 50
HILO             1300      78                N/A     9/ 8   3/ 70
KANEOHE BAY BUOY 1300      75                N/A     7/ 7   2/ 10
HANALEI KAUAI    1300      76                N/A     8/ 7   2/350
KAHULUI HARBOR   1300   74 77   40/ 17/ 22 1018.2
HONOLULU HARBOR  1300   74 77   60/  7/ 15 1019.1
KILO NALU        NOT AVBL
HILO HARBOR      1300   71 77  220/  3/  5 1019.3
MOKUOLOE         1300   74 77   90/ 14/ 17 1019.8F
NAWILIWILI       1300   74 78   50/ 13/ 17 1020.4F
WHOTS BUOY       NOT AVBL
BUOY 51028       NOT AVBL
$$

......................KEY........................................
  SKY/WX - SKY CONDITIONS/PRESENT WEATHER
  TMP    - TEMPERATURE IN FAHRENHEIT
  DWPT   - DEWPOINT IN FAHRENHEIT
  RH     - RELATIVE HUMIDITY IN PERCENT
  WIND   - DIRECTION AND SPEED /MPH FOR ISLANDS...KTS FOR BUOYS/
  PRES   - MEAN SEA LEVEL PRESSURE IN INCHES OF HG
  VSB    - VISIBILITY IN MILES
  HX     - HEAT INDEX
  WCI    - WIND CHILL INDEX
  VRB    - VARIABLE WIND DIRECTION
  N/A    - NOT AVAILABLE


USA.gov is the U.S. government's official web portal to all federal, state and local government web resources and services.